STARLINK-35815

Last updated on Wed Dec 31 2025 00:02:06 GMT+0000 (Coordinated Universal Time)

1 66577U 25268W 25364.58335648 .00048721 00000+0 17705-2 0 9999 2 66577 43.0004 17.3535 0001210 271.6426 341.0118 15.27540575 6027
UTC large
Height (km)
Speed (km/s)
/
Latitude / Longitude
Inclination (degrees)
Orbital Period (minutes)
Azimuth
Elevation
Range (km)
Doppler Factor

Next 0 passes for location: London (51.5072 / 0.1276)

Sorry there are no passes over London.